Simultaneous Nadir Overpasses (SNOs) Predictions

Prediction of SNOs between GOES-14 and AQUA Satellite Orbit:

Table of predicted SNOs for the next 14.0 days since TLE Epoch: 7/27/2024
Index Date Time (GOES-14) GOES-14 Lat,Lon AQUA Lat,Lon Distance(km) Time Diff (sec)
1 07/28/2024 09:26:52 -0.39,-108.49 -0.33,-108.71 25.33 80
2 07/30/2024 09:12:40 -0.39,-108.49 -1.26,-104.59 443.67 80
3 07/30/2024 21:30:10 0.41,-108.43 0.20,-109.48 118.37 80
4 08/01/2024 21:15:56 0.41,-108.43 1.07,-105.34 351.09 80
5 08/02/2024 09:33:19 -0.43,-108.49 -0.07,-110.20 194.57 80
6 08/04/2024 09:19:04 -0.43,-108.48 -0.94,-106.06 275.51 80
7 08/04/2024 21:36:35 0.45,-108.42 -0.07,-110.95 286.77 80
8 08/06/2024 21:22:19 0.45,-108.43 0.80,-106.81 184.52 80
9 08/07/2024 09:39:41 -0.46,-108.49 0.23,-111.65 359.97 80
10 08/09/2024 09:25:24 -0.46,-108.49 -0.64,-107.51 111.79 80
11 08/09/2024 21:42:54 0.47,-108.43 -0.40,-112.39 450.73 80
